Temp
-9 -9 -9 -9 -9 -9 -10 -11 -12 -11 -11 -11 -12 -12 -12 -13 -12 -11 -10 -9 -10 -10 -10 -10 -11 -11 -11 -11 -12 -12 -12 -12 -13 -13 -14 -13 -13 -13 -14 -14 -13 -13 -14 -13
-9 -9 -9 -9 -10 -10 -10 -10 -11 -11 -11 -11 -12 -12 -12 -11 -11 -11 -11 -10 -10 -10 -10 -10 -12 -11 -12 -11 -11 -11 -11 -11 -12 -12 -13 -13 -14 -14 -13 -14 -14 -14 -14 -14
-9 -9 -9 -10 -10 -11 -11 -11 -11 -11 -11 -12 -12 -12 -12 -12 -11 -11 -11 -11 -11 -10 -10 -12 -12 -13 -12 -12 -11 -11 -11 -11 -12 -12 -12 -12 -12 -13 -14 -14 -14 -14 -14 -15
-9 -9 -10 -10 -10 -10 -11 -11 -11 -11 -11 -11 -12 -12 -12 -12 -12 -12 -12 -12 -11 -11 -12 -12 -12 -13 -13 -12 -13 -12 -12 -12 -13 -13 -12 -12 -12 -13 -14 -16 -17 -16 -15 -15
-10 -9 -11 -10 -10 -10 -10 -10 -11 -11 -11 -11 -12 -12 -11 -11 -11 -12 -11 -11 -12 -13 -13 -12 -13 -13 -14 -14 -14 -14 -14 -14 -15 -14 -14 -13 -14 -14 -15 -16 -17 -18 -17 -18
-10 -9 -9 -10 -10 -11 -11 -10 -11 -11 -11 -11 -12 -11 -11 -12 -12 -12 -12 -13 -13 -13 -13 -13 -13 -14 -15 -14 -15 -15 -15 -15 -15 -15 -15 -15 -15 -16 -16 -17 -17 -18 -18 -18
-10 -10 -9 -9 -10 -11 -11 -10 -10 -11 -11 -12 -12 -12 -12 -13 -13 -13 -13 -14 -14 -14 -14 -14 -15 -15 -15 -15 -15 -15 -16 -16 -16 -16 -16 -16 -17 -16 -16 -16 -17 -17 -17 -17
-10 -10 -10 -10 -10 -11 -10 -10 -11 -11 -11 -12 -12 -13 -13 -13 -13 -13 -14 -14 -14 -14 -15 -15 -15 -15 -15 -15 -16 -16 -16 -16 -15 -16 -16 -16 -17 -17 -17 -17 -16 -16 -17 -17
-10 -11 -11 -10 -10 -11 -11 -11 -11 -11 -12 -12 -12 -12 -13 -13 -13 -13 -13 -14 -14 -14 -15 -15 -15 -15 -16 -16 -16 -16 -16 -16 -16 -15 -16 -16 -17 -17 -17 -16 -16 -16 -17 -17
-11 -10 -11 -11 -11 -11 -11 -11 -12 -11 -12 -12 -13 -13 -13 -13 -13 -13 -13 -14 -14 -15 -15 -15 -15 -16 -16 -17 -17 -16 -16 -16 -16 -16 -16 -17 -17 -17 -17 -17 -16 -17 -17 -17
-12 -11 -11 -11 -11 -11 -11 -11 -12 -12 -12 -13 -13 -13 -13 -13 -13 -13 -13 -14 -15 -15 -15 -16 -16 -16 -17 -16 -16 -16 -16 -17 -17 -17 -18 -18 -18 -18 -18 -18 -18 -17 -17 -17
-11 -11 -11 -12 -12 -11 -11 -12 -12 -13 -13 -13 -13 -12 -14 -13 -13 -13 -14 -15 -15 -15 -16 -16 -17 -17 -17 -16 -16 -16 -17 -17 -17 -18 -18 -19 -19 -19 -19 -18 -18 -18 -17 -18
-11 -11 -11 -11 -11 -12 -12 -12 -12 -13 -13 -13 -13 -13 -13 -13 -13 -14 -14 -14 -15 -16 -16 -17 -17 -17 -16 -16 -16 -17 -17 -18 -18 -18 -19 -19 -19 -19 -18 -18 -18 -18 -17 -17
-11 -11 -11 -11 -12 -12 -12 -12 -12 -12 -12 -12 -12 -13 -13 -14 -14 -14 -15 -15 -16 -16 -17 -16 -16 -16 -16 -16 -16 -17 -18 -18 -19 -19 -19 -19 -19 -19 -19 -18 -18 -18 -17 -17
-11 -12 -11 -11 -12 -12 -12 -12 -13 -13 -13 -13 -13 -13 -13 -14 -14 -14 -15 -15 -16 -16 -16 -16 -16 -16 -16 -16 -17 -17 -18 -19 -19 -19 -19 -20 -20 -19 -19 -19 -19 -18 -18 -18
-12 -12 -12 -12 -12 -12 -12 -12 -12 -12 -13 -13 -13 -13 -14 -14 -15 -15 -15 -16 -16 -16 -16 -16 -16 -15 -16 -17 -17 -17 -18 -18 -18 -19 -19 -19 -20 -20 -20 -20 -19 -19 -18 -18
-11 -11 -12 -12 -12 -12 -12 -12 -12 -13 -13 -13 -13 -14 -14 -15 -15 -15 -15 -16 -16 -16 -16 -16 -16 -16 -16 -16 -16 -17 -17 -17 -18 -19 -19 -19 -20 -20 -20 -20 -20 -20 -19 -18
-11 -12 -12 -12 -12 -12 -12 -12 -13 -13 -13 -13 -14 -14 -14 -14 -15 -15 -15 -16 -16 -16 -16 -16 -16 -16 -16 -16 -17 -17 -17 -17 -18 -19 -19 -19 -20 -19 -20 -20 -20 -20 -19 -19
-12 -12 -12 -13 -12 -12 -13 -13 -13 -13 -13 -14 -14 -14 -14 -14 -15 -15 -16 -16 -16 -15 -16 -16 -16 -15 -16 -16 -16 -17 -17 -17 -18 -18 -18 -19 -19 -19 -20 -20 -19 -19 -19 -18
-13 -13 -12 -13 -12 -12 -13 -13 -13 -13 -13 -13 -14 -14 -14 -14 -15 -15 -15 -15 -14 -15 -15 -16 -16 -16 -16 -16 -16 -17 -17 -17 -17 -18 -18 -18 -18 -19 -18 -19 -19 -19 -18 -18
-12 -12 -12 -12 -12 -12 -13 -13 -13 -13 -13 -13 -13 -13 -14 -14 -14 -15 -15 -15 -15 -16 -16 -16 -16 -15 -16 -16 -16 -16 -16 -17 -17 -17 -17 -18 -18 -18 -18 -18 -18 -19 -18 -18
-12 -12 -12 -12 -12 -12 -13 -13 -13 -13 -13 -13 -13 -14 -14 -14 -15 -15 -15 -15 -15 -16 -16 -16 -16 -15 -16 -16 -16 -16 -16 -16 -16 -17 -17 -17 -17 -17 -17 -17 -18 -18 -19 -18
-12 -13 -13 -12 -13 -13 -13 -13 -13 -13 -14 -13 -13 -14 -14 -15 -15 -15 -15 -15 -15 -15 -16 -16 -16 -16 -16 -16 -16 -16 -16 -16 -16 -17 -17 -17 -17 -17 -17 -17 -17 -18 -18 -18
-13 -13 -13 -13 -13 -13 -13 -13 -13 -14 -13 -13 -14 -14 -14 -15 -14 -15 -15 -15 -15 -15 -16 -16 -16 -16 -16 -16 -16 -16 -16 -16 -16 -16 -16 -17 -17 -17 -17 -17 -17 -17 -17 -17
-13 -13 -13 -13 -13 -13 -13 -14 -14 -13 -13 -14 -13 -14 -14 -14 -14 -15 -15 -15 -15 -16 -16 -16 -16 -16 -16 -16 -16 -16 -16 -16 -16 -16 -16 -16 -16 -17 -17 -17 -17 -17 -17 -17
-13 -14 -14 -13 -14 -13 -13 -13 -14 -13 -13 -13 -13 -14 -14 -14 -15 -15 -15 -15 -15 -16 -16 -16 -16 -16 -16 -16 -16 -16 -16 -16 -16 -16 -16 -16 -16 -17 -17 -16 -17 -17 -16 -16
Height
5912 5912 5911 5911 5910 5908 5908 5909 5909 5905 5904 5901 5899 5897 5896 5894 5891 5891 5890 5889 5887 5885 5880 5878 5874 5869 5865 5860 5857 5852 5846 5838 5833 5828 5821 5812 5809 5806 5801 5797 5795 5793 5792 5791
5910 5909 5909 5908 5906 5904 5905 5905 5906 5905 5901 5899 5895 5893 5891 5888 5885 5886 5885 5883 5880 5875 5873 5870 5864 5859 5854 5849 5844 5840 5835 5830 5823 5817 5812 5806 5797 5788 5784 5782 5776 5776 5775 5775
5907 5907 5904 5905 5904 5901 5900 5900 5898 5897 5897 5894 5892 5890 5886 5885 5880 5878 5878 5876 5872 5868 5866 5862 5855 5851 5844 5836 5830 5823 5817 5810 5805 5799 5793 5787 5782 5775 5765 5757 5754 5753 5751 5751
5904 5903 5901 5901 5900 5898 5896 5894 5893 5891 5889 5889 5887 5884 5885 5879 5876 5875 5873 5869 5864 5861 5857 5852 5849 5841 5832 5823 5815 5808 5801 5795 5788 5780 5772 5765 5759 5752 5745 5738 5731 5725 5724 5725
5901 5900 5898 5897 5895 5895 5892 5890 5887 5885 5883 5882 5881 5877 5876 5874 5873 5870 5865 5862 5858 5855 5851 5847 5838 5830 5821 5812 5804 5795 5787 5780 5772 5762 5751 5742 5734 5726 5720 5717 5711 5706 5703 5702
5898 5897 5895 5895 5892 5890 5887 5886 5883 5880 5879 5877 5874 5872 5870 5870 5867 5864 5860 5856 5852 5847 5842 5836 5830 5822 5814 5806 5797 5789 5781 5772 5759 5747 5734 5724 5716 5709 5703 5699 5697 5695 5692 5687
5894 5894 5892 5890 5889 5885 5882 5880 5880 5878 5875 5874 5871 5868 5864 5861 5860 5857 5855 5848 5843 5838 5833 5828 5822 5814 5808 5800 5791 5782 5770 5758 5746 5735 5724 5713 5704 5697 5691 5687 5682 5681 5679 5676
5889 5889 5888 5886 5885 5882 5879 5878 5876 5873 5872 5870 5866 5863 5861 5857 5854 5851 5845 5841 5836 5833 5828 5824 5816 5810 5802 5791 5781 5769 5754 5742 5730 5717 5708 5700 5693 5686 5679 5674 5670 5667 5663 5661
5886 5885 5883 5881 5880 5878 5876 5872 5870 5868 5867 5866 5863 5860 5856 5854 5851 5846 5842 5838 5835 5829 5823 5815 5805 5796 5786 5774 5760 5746 5734 5722 5712 5703 5695 5688 5681 5674 5667 5662 5660 5656 5652 5648
5884 5882 5878 5877 5876 5874 5871 5869 5866 5864 5861 5860 5858 5854 5851 5848 5843 5837 5833 5830 5826 5819 5811 5802 5792 5783 5772 5758 5744 5731 5718 5706 5697 5689 5680 5673 5667 5662 5656 5651 5648 5645 5641 5638
5880 5880 5878 5872 5871 5869 5868 5864 5861 5859 5856 5852 5853 5856 5848 5841 5836 5831 5827 5822 5815 5808 5801 5790 5780 5768 5756 5744 5731 5716 5705 5694 5683 5674 5667 5660 5654 5648 5644 5639 5636 5633 5630 5627
5875 5874 5874 5870 5866 5864 5863 5858 5856 5852 5853 5849 5846 5846 5839 5833 5829 5825 5819 5813 5807 5798 5788 5778 5769 5757 5744 5732 5718 5705 5693 5681 5671 5662 5655 5649 5644 5638 5633 5628 5623 5620 5617 5616
5871 5870 5869 5866 5863 5860 5858 5854 5851 5847 5845 5846 5841 5840 5834 5831 5827 5820 5813 5804 5796 5789 5781 5771 5760 5747 5734 5719 5707 5696 5684 5673 5662 5653 5646 5638 5631 5625 5619 5614 5609 5606 5604 5604
5865 5864 5864 5863 5858 5854 5854 5851 5847 5842 5839 5837 5834 5832 5827 5822 5816 5810 5804 5798 5790 5782 5773 5762 5749 5736 5721 5709 5698 5687 5675 5664 5653 5643 5634 5625 5617 5609 5603 5598 5593 5590 5589 5590
5861 5860 5859 5856 5854 5850 5845 5843 5841 5836 5835 5831 5828 5824 5820 5816 5810 5803 5797 5790 5782 5774 5764 5752 5738 5725 5711 5701 5691 5679 5667 5656 5644 5634 5624 5614 5604 5596 5590 5584 5580 5577 5577 5577
5856 5855 5854 5852 5849 5846 5845 5839 5834 5832 5830 5827 5821 5818 5814 5809 5802 5796 5790 5784 5776 5766 5753 5740 5727 5713 5703 5695 5684 5672 5660 5649 5637 5627 5616 5606 5596 5587 5579 5573 5568 5566 5566 5567
5850 5849 5848 5847 5843 5841 5839 5835 5830 5828 5824 5821 5818 5814 5808 5805 5799 5792 5785 5777 5765 5753 5741 5730 5717 5705 5697 5687 5676 5665 5654 5643 5633 5622 5611 5602 5593 5583 5574 5566 5561 5557 5556 5558
5843 5842 5842 5841 5838 5837 5831 5828 5824 5820 5818 5815 5811 5806 5802 5798 5791 5784 5777 5766 5755 5744 5733 5720 5706 5698 5690 5681 5671 5660 5649 5639 5630 5620 5610 5601 5593 5583 5574 5566 5560 5555 5553 5553
5836 5834 5833 5832 5831 5830 5825 5819 5817 5814 5813 5810 5805 5802 5797 5791 5786 5777 5767 5758 5747 5736 5723 5710 5700 5693 5685 5676 5666 5655 5646 5637 5628 5619 5611 5603 5594 5585 5577 5569 5563 5557 5554 5553
5830 5829 5829 5824 5823 5821 5818 5814 5811 5808 5806 5802 5799 5796 5791 5785 5778 5769 5760 5751 5739 5728 5716 5705 5697 5690 5682 5672 5662 5653 5645 5637 5629 5621 5614 5605 5596 5589 5581 5574 5567 5562 5558 5556
5823 5823 5824 5819 5816 5817 5812 5809 5807 5803 5802 5795 5792 5788 5784 5777 5770 5761 5753 5743 5733 5722 5711 5702 5695 5687 5677 5668 5660 5652 5645 5638 5630 5623 5615 5608 5599 5591 5584 5578 5572 5568 5563 5560
5814 5814 5815 5813 5810 5808 5806 5803 5801 5797 5793 5789 5786 5782 5776 5770 5764 5756 5748 5738 5728 5718 5708 5701 5693 5684 5675 5667 5659 5652 5645 5638 5632 5626 5618 5610 5602 5595 5587 5581 5576 5571 5568 5566
5805 5807 5806 5806 5805 5802 5799 5798 5795 5791 5786 5783 5780 5775 5771 5766 5760 5752 5742 5734 5724 5715 5706 5699 5691 5683 5674 5667 5660 5652 5645 5640 5634 5627 5621 5614 5606 5600 5593 5586 5580 5576 5572 5569
5798 5798 5798 5798 5798 5796 5795 5792 5788 5785 5781 5778 5775 5771 5767 5761 5754 5746 5738 5730 5721 5711 5703 5697 5690 5682 5675 5667 5660 5652 5646 5641 5635 5630 5624 5617 5611 5605 5598 5592 5587 5581 5575 5571
5791 5790 5791 5791 5789 5786 5786 5785 5782 5778 5775 5773 5769 5766 5761 5755 5748 5742 5734 5727 5717 5708 5700 5696 5690 5683 5675 5668 5661 5654 5648 5643 5638 5632 5627 5620 5614 5608 5602 5597 5591 5585 5580 5576
5783 5784 5782 5783 5782 5780 5779 5778 5776 5771 5769 5766 5763 5759 5754 5750 5745 5738 5731 5724 5714 5705 5698 5694 5689 5683 5676 5669 5663 5656 5650 5645 5640 5635 5630 5625 5618 5612 5605 5599 5594 5588 5582 5578
Wind_Speed
12 14 13 13 15 13 10 10 15 19 25 25 16 22 26 26 31 32 30 26 25 26 32 27 36 39 39 42 43 43 43 43 45 44 47 55 55 52 51 54 52 49 50 55
13 14 13 8 12 17 15 17 20 25 30 32 34 32 33 40 44 41 36 32 33 35 30 31 45 45 49 51 51 49 45 44 48 51 50 51 54 59 60 57 56 53 51 52
14 13 11 10 14 19 20 20 25 31 35 41 42 41 37 43 45 40 38 37 37 35 37 43 50 53 55 56 55 55 55 57 61 60 61 60 59 61 66 68 66 66 67 64
14 12 13 14 16 18 21 23 25 25 27 27 31 39 36 43 47 45 40 41 38 39 43 49 52 55 57 60 63 66 67 68 67 67 68 68 68 70 66 54 56 62 65 69
14 13 15 16 19 17 16 16 19 18 18 21 20 29 29 32 32 32 34 36 39 42 49 51 54 59 63 66 69 71 73 72 73 73 74 76 76 73 67 57 53 48 55 60
14 15 19 16 14 15 20 17 13 18 15 15 20 23 24 24 26 29 33 38 45 49 51 52 56 58 63 66 69 71 70 71 73 74 78 76 70 64 58 49 49 49 48 54
15 14 16 16 15 15 18 22 15 14 14 12 19 20 23 25 26 32 36 42 46 49 53 55 54 60 64 66 68 69 71 71 73 74 68 61 58 54 48 42 38 36 41 45
16 17 17 18 18 16 19 18 17 15 15 15 18 21 25 30 33 36 38 42 46 51 53 54 58 59 61 65 68 69 72 74 76 69 57 52 49 48 48 45 39 37 37 38
16 18 18 19 18 18 20 23 23 21 17 14 19 24 29 32 33 38 43 46 49 52 51 54 57 60 64 68 72 74 77 78 68 58 52 49 45 43 44 43 38 35 37 37
17 17 19 22 21 22 22 24 24 24 22 18 17 22 26 29 34 39 42 43 45 47 51 55 58 63 67 70 73 78 76 67 62 56 54 51 49 44 43 41 39 38 37 36
21 17 19 25 24 23 23 25 25 22 22 22 18 16 25 32 36 41 43 44 46 49 52 56 61 66 70 71 76 71 65 62 58 53 51 47 44 42 41 41 39 38 36 36
21 19 17 21 25 25 25 26 25 24 21 24 26 23 28 34 39 42 44 45 48 51 55 59 63 67 70 73 66 61 58 56 51 46 43 40 40 42 43 44 43 42 39 37
20 18 18 21 25 26 24 26 27 27 25 22 26 26 31 33 34 37 42 47 51 53 55 59 63 66 69 64 55 52 52 50 47 44 43 46 48 51 47 48 48 46 43 39
20 21 20 19 24 27 25 24 27 30 29 26 28 30 34 35 38 42 45 47 51 53 56 60 63 65 66 51 49 50 50 51 51 50 52 51 49 49 48 44 43 43 41 39
21 21 22 22 24 26 29 28 26 29 30 31 31 31 34 35 39 43 46 49 52 54 56 59 60 66 50 47 47 49 50 50 47 46 46 44 42 39 39 38 37 35 35 32
19 20 22 22 25 25 24 26 28 28 26 27 31 32 33 36 40 44 47 49 51 52 56 59 63 57 43 44 45 47 48 47 46 44 43 40 38 37 35 33 31 29 28 28
21 20 20 20 25 25 24 25 26 25 23 27 32 31 32 34 38 42 45 48 51 55 57 60 62 42 40 43 46 47 45 44 42 40 40 37 34 32 30 27 23 21 21 22
23 23 23 24 28 26 29 28 26 26 24 28 29 32 34 36 40 44 46 48 52 55 58 63 46 36 40 42 44 44 42 42 38 38 36 32 32 30 27 25 22 17 12 14
26 27 27 28 28 28 24 27 26 24 24 24 30 31 33 36 39 43 46 49 52 57 62 52 36 38 40 40 40 41 39 38 34 32 29 31 37 33 30 27 22 17 11 5
28 29 28 30 29 29 24 22 23 25 24 27 28 29 33 37 40 43 47 49 55 58 58 39 35 37 40 38 37 38 35 30 28 28 27 30 31 28 28 29 24 19 13 9
31 28 24 27 29 25 23 22 22 24 26 27 29 31 33 37 41 45 47 49 54 58 46 36 37 39 37 34 34 34 30 26 26 25 26 30 33 31 26 28 25 19 16 13
33 29 25 27 28 27 27 25 25 26 28 29 30 32 35 38 42 43 45 49 53 54 39 34 36 38 33 31 32 31 28 24 25 24 27 30 33 33 32 26 20 20 13 11
35 31 29 29 27 26 31 28 25 25 29 31 31 32 35 37 40 42 44 49 52 48 36 33 34 32 31 29 30 29 25 22 23 23 26 29 27 32 30 28 20 14 13 12
33 33 30 29 29 29 28 29 29 27 29 29 29 32 33 36 38 41 46 48 49 43 32 32 30 27 28 28 29 27 23 22 23 22 25 26 27 28 25 28 21 24 15 11
32 33 30 30 31 33 29 28 29 31 30 27 29 30 33 36 38 40 44 45 48 39 28 27 22 24 28 30 29 26 24 22 21 23 25 29 25 26 29 24 23 24 19 16
33 31 33 30 32 34 33 31 31 33 30 30 30 31 34 34 36 38 42 44 46 36 24 22 18 24 27 28 29 27 23 22 20 20 21 26 22 29 32 31 25 24 18 16
Wind_Direction
276 283 279 277 264 250 234 246 261 277 281 275 276 270 286 286 297 300 295 295 290 289 293 299 305 299 301 302 300 298 296 299 300 300 304 303 299 296 293 287 282 281 276 270
262 260 269 260 270 282 289 279 264 264 268 282 287 279 284 288 290 294 298 297 296 295 301 305 306 308 305 303 300 298 294 298 301 300 296 289 296 295 291 284 281 276 269 272
273 273 272 264 259 272 281 279 274 267 257 266 271 273 275 281 290 292 297 300 298 307 306 303 308 308 305 306 307 309 308 309 310 307 301 297 294 294 298 294 286 276 270 260
281 291 300 290 291 278 281 285 287 282 278 268 263 264 261 272 278 285 290 288 299 306 306 302 306 304 312 315 318 318 316 314 311 309 305 301 298 299 295 282 274 272 267 265
276 294 285 292 284 288 290 293 294 292 282 275 260 260 263 264 269 273 279 293 296 298 296 302 306 311 314 316 317 317 317 317 316 312 308 308 306 303 298 290 278 271 269 268
283 288 291 303 296 308 301 303 291 299 296 281 276 279 279 272 272 277 284 290 292 296 300 304 308 310 310 312 315 315 315 314 312 312 311 306 303 298 296 293 286 282 275 272
287 283 292 306 317 321 311 314 316 296 291 276 274 280 286 291 285 287 288 291 295 297 301 306 306 305 308 310 311 312 313 312 311 308 303 300 299 299 299 297 295 286 278 272
296 298 310 308 315 313 304 318 317 311 301 297 281 270 270 281 285 288 288 290 291 296 298 299 300 302 306 309 311 312 311 310 311 308 303 300 299 297 297 297 296 294 289 282
304 308 309 307 319 312 317 314 313 311 307 293 278 271 273 275 278 278 280 283 288 295 300 298 304 308 313 315 316 314 315 313 309 307 305 303 300 297 295 292 293 289 289 292
303 308 309 306 312 311 314 309 307 307 303 294 287 286 285 291 292 293 296 300 302 307 306 309 312 316 317 316 314 315 314 311 310 308 304 302 299 298 294 292 291 289 288 288
300 300 302 307 307 308 309 305 306 305 303 301 295 277 291 289 291 299 307 311 311 308 312 315 319 318 317 316 317 314 311 311 308 306 303 300 298 298 296 294 290 287 287 285
295 299 302 299 304 308 310 308 310 306 305 303 305 312 296 300 307 311 312 308 309 316 318 320 319 316 316 317 313 313 315 313 315 311 307 305 302 300 296 293 290 288 283 283
292 295 300 304 305 305 307 308 308 306 302 298 296 304 298 304 306 304 307 316 319 317 318 318 315 316 317 316 316 319 319 319 317 313 307 306 299 301 297 293 287 284 283 279
289 293 299 304 309 312 311 305 307 303 301 305 302 306 309 313 315 314 314 315 315 317 319 316 317 318 320 319 321 322 320 320 315 311 310 309 305 302 299 296 291 283 276 277
282 288 297 300 305 309 316 316 309 301 301 304 303 302 308 311 311 313 316 317 318 318 316 316 319 325 321 323 324 324 325 327 325 323 320 318 315 310 306 299 292 289 276 273
276 285 295 303 303 306 310 302 300 302 301 292 297 302 307 310 314 314 314 315 317 315 319 323 325 325 323 327 329 329 331 332 333 332 331 333 329 326 321 310 298 281 277 268
277 283 292 303 309 312 308 312 301 301 296 291 293 303 304 309 308 310 315 318 320 324 326 326 326 323 326 332 333 334 336 337 338 341 341 342 342 342 341 336 322 300 273 259
282 285 290 299 306 311 307 304 302 300 300 296 302 302 311 313 313 318 320 324 327 326 327 330 330 327 333 334 333 338 340 341 340 345 347 352 350 351 354 358 354 336 304 261
282 288 299 301 302 312 307 305 306 299 299 299 297 308 310 312 318 321 326 327 328 330 334 335 334 336 339 334 337 342 344 344 348 357 5 13 11 7 10 6 2 4 1 331
278 282 289 297 304 316 317 309 303 303 306 300 305 307 312 320 322 327 328 331 331 337 337 339 337 338 337 339 343 344 347 353 0 6 7 6 8 10 13 17 13 12 11 6
272 277 286 291 300 317 318 309 305 304 304 306 309 315 320 322 327 328 331 333 335 337 340 339 337 338 340 344 347 346 347 356 2 5 10 4 2 360 3 19 15 22 35 47
276 281 290 288 299 313 317 317 314 311 310 308 313 320 322 326 326 327 333 333 336 340 339 337 339 344 346 346 348 350 346 355 5 4 7 10 12 15 17 21 22 15 35 37
274 282 285 288 295 306 309 313 323 315 309 311 316 319 321 323 323 331 332 334 337 338 338 340 341 347 348 350 353 353 347 355 5 4 11 16 20 19 17 30 13 36 45 26
269 277 281 286 288 293 301 309 313 312 307 310 312 315 319 321 328 333 331 336 334 339 339 340 344 351 351 355 356 358 352 358 2 7 8 14 18 21 6 16 35 19 20 13
262 268 275 275 281 287 299 308 309 308 310 307 309 315 319 325 330 331 333 334 337 341 339 340 353 1 0 2 359 1 356 356 8 13 20 13 14 13 0 12 22 29 20 23
264 270 271 276 279 284 296 306 305 306 311 307 314 317 319 326 326 330 332 334 339 342 337 336 347 357 358 1 3 3 1 358 360 9 13 11 15 12 7 15 25 26 18 31